Change the Weather History Date:

Wednesday, October 5, 2011

  Actual Average Record
Temperature  
Mean Temperature 58 °F -  
Max Temperature 73 °F 64 °F 87 °F (2007)
Min Temperature 42 °F 43 °F 28 °F (2004)
Degree Days  
Heating Degree Days 8    
Growing Degree Days 8 (Base 50)    
Moisture  
Dew Point 43 °F    
Average Humidity 68    
Maximum Humidity 100    
Minimum Humidity 27    
Precipitation  
Precipitation 0.00 in - - ()
Sea Level Pressure  
Sea Level Pressure 30.26 in    
Wind  
Wind Speed 0 mph (West)    
Max Wind Speed 6 mph    
Max Gust Speed -    
Visibility 10 miles    
Events      
Averages and records for this station are not official NWS values.
T = Trace of Precipitation, MM = Missing Value Source: NWS Daily Summary

Daily Weather History Graph

Daily Weather History Graph

Search for Another Location

Airport or City:

Trip Planner

Search our weather history database for the weather conditions in past years. The results will help you decide how hot, cold, wet, or windy it might be!

Date:

Astronomy

Oct. 05, 2011 Rise Set
Actual Time 7:37 AM EDT 7:10 PM EDT
Civil Twilight 7:09 AM EDT 7:38 PM EDT
Nautical Twilight 6:36 AM EDT 8:11 PM EDT
Astronomical Twilight 6:03 AM EDT 8:44 PM EDT
Moon 3:57 PM EDT (10/5) 1:14 AM EDT (10/5)
Length of Visible Light 12h 29m
Length of Day
11h 33m
Waxing Gibbous, 66% of the Moon is Illuminated
Oct 5
Waxing Gibbous
Oct 11
Full
Oct 19
Last Quarter
Oct 26
New
Nov 2
First Quarter

Hourly Weather History & Observations

Time (EDT) Temp. Windchill Dew Point Humidity Pressure Visibility Wind Dir Wind Speed Gust Speed Precip Events Conditions
12:14 AM 46.4 °F - 44.6 °F 93% 30.24 in 10.0 mi Calm Calm - N/A   Clear
12:35 AM 46.4 °F - 44.6 °F 93% 30.23 in 10.0 mi Calm Calm - N/A   Clear
12:54 AM 50.0 °F - 46.4 °F 87% 30.23 in 10.0 mi Calm Calm - N/A   Clear
1:14 AM 48.2 °F - 44.6 °F 87% 30.23 in 10.0 mi Calm Calm - N/A   Clear
1:34 AM 50.0 °F - 46.4 °F 87% 30.24 in 10.0 mi Calm Calm - N/A   Clear
1:54 AM 48.2 °F - 44.6 °F 87% 30.24 in 10.0 mi Calm Calm - N/A   Clear
2:14 AM 48.2 °F - 44.6 °F 87% 30.24 in 10.0 mi Calm Calm - N/A   Clear
2:34 AM 46.4 °F - 44.6 °F 93% 30.24 in 10.0 mi Calm Calm - N/A   Clear
3:14 AM 46.4 °F - 44.6 °F 93% 30.24 in 10.0 mi Calm Calm - N/A   Clear
3:34 AM 46.4 °F - 44.6 °F 93% 30.25 in 10.0 mi Calm Calm - N/A   Clear
3:53 AM 46.4 °F - 44.6 °F 93% 30.24 in 10.0 mi Calm Calm - N/A   Clear
4:14 AM 46.4 °F - 42.8 °F 87% 30.24 in 10.0 mi Calm Calm - N/A   Clear
4:34 AM 46.4 °F - 42.8 °F 87% 30.24 in 10.0 mi Calm Calm - N/A   Clear
4:54 AM 44.6 °F - 42.8 °F 93% 30.25 in 10.0 mi Calm Calm - N/A   Clear
5:14 AM 44.6 °F - 42.8 °F 93% 30.25 in 10.0 mi Calm Calm - N/A   Clear
5:54 AM 44.6 °F 43.1 °F 42.8 °F 93% 30.25 in 10.0 mi SW 3.5 mph - N/A   Clear
6:14 AM 44.6 °F - 42.8 °F 93% 30.25 in 10.0 mi Calm Calm - N/A   Clear
6:34 AM 46.4 °F - 44.6 °F 93% 30.25 in 10.0 mi Calm Calm - N/A   Clear
6:54 AM 46.4 °F - 42.8 °F 87% 30.26 in 10.0 mi Calm Calm - N/A   Clear
7:14 AM 42.8 °F - 41.0 °F 93% 30.27 in 10.0 mi Calm Calm - N/A   Clear
7:34 AM 44.6 °F - 42.8 °F 93% 30.27 in 10.0 mi Calm Calm - N/A   Clear
7:54 AM 44.6 °F - 42.8 °F 93% 30.28 in 10.0 mi Calm Calm - N/A   Clear
8:14 AM 42.8 °F - 42.8 °F 100% 30.28 in 10.0 mi Calm Calm - N/A   Clear
8:34 AM 46.4 °F - 44.6 °F 93% 30.28 in 10.0 mi Calm Calm - N/A   Clear
8:54 AM 50.0 °F - 46.4 °F 87% 30.29 in 10.0 mi Calm Calm - N/A   Clear
9:14 AM 53.6 °F - 46.4 °F 77% 30.28 in 10.0 mi West 4.6 mph - N/A   Clear
9:34 AM 55.4 °F - 46.4 °F 72% 30.29 in 10.0 mi West 3.5 mph - N/A   Clear
9:54 AM 57.2 °F - 48.2 °F 72% 30.29 in 10.0 mi West 3.5 mph - N/A   Clear
10:15 AM 57.2 °F - 48.2 °F 72% 30.29 in 10.0 mi WNW 4.6 mph - N/A   Clear
10:34 AM 59.0 °F - 46.4 °F 63% 30.29 in 10.0 mi WNW 3.5 mph - N/A   Clear
10:54 AM 62.6 °F - 44.6 °F 52% 30.29 in 10.0 mi Calm Calm - N/A   Clear
11:15 AM 62.6 °F - 44.6 °F 52% 30.29 in 10.0 mi Calm Calm - N/A   Clear
11:34 AM 62.6 °F - 42.8 °F 48% 30.29 in 10.0 mi Calm Calm - N/A   Clear
12:14 PM 66.2 °F - 41.0 °F 40% 30.29 in 10.0 mi Calm Calm - N/A   Clear
12:34 PM 68.0 °F - 37.4 °F 33% 30.29 in 10.0 mi Calm Calm - N/A   Clear
12:54 PM 69.8 °F - 39.2 °F 33% 30.29 in 7.0 mi Calm Calm - N/A   Clear
1:14 PM 69.8 °F - 41.0 °F 35% 30.28 in 10.0 mi Calm Calm - N/A   Clear
1:34 PM 69.8 °F - 41.0 °F 35% 30.28 in 10.0 mi NE 5.8 mph - N/A   Clear
1:54 PM 69.8 °F - 41.0 °F 35% 30.27 in 10.0 mi Calm Calm - N/A   Clear
2:14 PM 71.6 °F - 41.0 °F 33% 30.27 in 10.0 mi Calm Calm - N/A   Clear
2:34 PM 71.6 °F - 37.4 °F 29% 30.27 in 10.0 mi Calm Calm - N/A   Clear
2:55 PM 71.6 °F - 39.2 °F 31% 30.25 in 10.0 mi Calm Calm - N/A   Clear
3:34 PM 71.6 °F - 39.2 °F 31% 30.25 in 10.0 mi ESE 3.5 mph - N/A   Clear
3:54 PM 71.6 °F - 37.4 °F 29% 30.25 in 10.0 mi Calm Calm - N/A   Clear
4:14 PM 71.6 °F - 37.4 °F 29% 30.25 in 10.0 mi Calm Calm - N/A   Clear
4:34 PM 73.4 °F - 37.4 °F 27% 30.24 in 10.0 mi Calm Calm - N/A   Clear
4:54 PM 71.6 °F - 35.6 °F 27% 30.24 in 10.0 mi Calm Calm - N/A   Clear
5:14 PM 71.6 °F - 37.4 °F 29% 30.25 in 10.0 mi Calm Calm - N/A   Clear
5:54 PM 71.6 °F - 37.4 °F 29% 30.25 in 10.0 mi East 3.5 mph - N/A   Clear
6:14 PM 69.8 °F - 42.8 °F 38% 30.25 in 10.0 mi Calm Calm - N/A   Clear
6:34 PM 69.8 °F - 41.0 °F 35% 30.25 in 10.0 mi Calm Calm - N/A   Clear
6:54 PM 66.2 °F - 44.6 °F 46% 30.25 in 10.0 mi Calm Calm - N/A   Clear
7:14 PM 64.4 °F - 46.4 °F 52% 30.25 in 10.0 mi Calm Calm - N/A   Clear
7:35 PM 62.6 °F - 44.6 °F 52% 30.25 in 10.0 mi Calm Calm - N/A   Clear
7:54 PM 60.8 °F - 44.6 °F 55% 30.25 in 10.0 mi Calm Calm - N/A   Clear
8:14 PM 57.2 °F - 46.4 °F 67% 30.26 in 10.0 mi Calm Calm - N/A   Clear
8:35 PM 57.2 °F - 46.4 °F 67% 30.26 in 10.0 mi Calm Calm - N/A   Clear
9:14 PM 53.6 °F - 46.4 °F 77% 30.27 in 10.0 mi Calm Calm - N/A   Clear
9:34 PM 53.6 °F - 50.0 °F 88% 30.27 in 10.0 mi Calm Calm - N/A   Clear
9:54 PM 55.4 °F - 50.0 °F 82% 30.27 in 10.0 mi Calm Calm - N/A   Clear
10:14 PM 53.6 °F - 50.0 °F 88% 30.28 in 10.0 mi Calm Calm - N/A   Clear
10:34 PM 53.6 °F - 46.4 °F 77% 30.28 in 10.0 mi Calm Calm - N/A   Clear
10:54 PM 51.8 °F - 46.4 °F 82% 30.28 in 10.0 mi Calm Calm - N/A   Clear
11:14 PM 51.8 °F - 48.2 °F 88% 30.28 in 10.0 mi Calm Calm - N/A   Clear
11:34 PM 51.8 °F - 50.0 °F 94% 30.28 in 10.0 mi Calm Calm - N/A   Clear
11:54 PM 53.6 °F - 50.0 °F 88% 30.28 in 10.0 mi Calm Calm - N/A   Clear